K4AVM-13 Weather Reports


time (UTC)temp
C
wind
direction
speed
KPH
gust
KPH
rain 1hr
cm
rain 24hr
cm
rain mn
cm
humidity
%
barometer
mb
20260831080354 23 177 0.0 0.0 0.00 0.00 0.00 94 1020.0
20260831075849 23 167 0.0 0.0 0.00 0.00 0.00 94 1020.0
20260831075344 23 167 0.0 0.0 0.00 0.00 0.00 93 1020.0
20260831074839 23 172 0.0 0.0 0.00 0.00 0.00 93 1019.8
20260831074338 23 173 0.0 0.0 0.00 0.00 0.00 93 1019.9
20260831073834 23 171 0.0 0.0 0.00 0.00 0.00 93 1020.1
20260831073333 23 152 0.0 1.6 0.00 0.00 0.00 93 1020.1
20260831072828 23 153 0.0 0.0 0.00 0.00 0.00 93 1020.0
20260831072324 23 183 0.0 0.0 0.00 0.00 0.00 93 1020.0
20260831071820 23 185 0.0 0.0 0.00 0.00 0.00 93 1020.2
20260831071319 23 149 0.0 0.0 0.00 0.00 0.00 93 1020.2
20260831070814 23 150 0.0 1.6 0.00 0.00 0.00 93 1020.2
20260831070312 23 154 0.0 0.0 0.00 0.00 0.00 93 1020.1
20260831065812 23 155 0.0 0.0 0.00 0.00 0.00 94 1020.1
20260831065310 23 154 0.0 0.0 0.00 0.00 0.00 94 1020.0
20260831064806 22 154 0.0 0.0 0.00 0.00 0.00 95 1020.3
20260831064301 22 155 0.0 0.0 0.00 0.00 0.00 95 1020.3
20260831063757 22 154 0.0 0.0 0.00 0.00 0.00 95 1020.3
20260831063251 22 155 0.0 0.0 0.00 0.00 0.00 95 1020.3
20260831062746 22 186 0.0 0.0 0.00 0.00 0.00 95 1020.3
20260831062241 22 239 0.0 0.0 0.00 0.00 0.00 95 1020.2
20260831061739 22 248 0.0 0.0 0.00 0.00 0.00 95 1020.0
20260831061234 22 248 0.0 0.0 0.00 0.00 0.00 95 1020.2
20260831060730 22 204 0.0 0.0 0.00 0.00 0.00 94 1020.3
20260831060225 23 205 0.0 0.0 0.00 0.00 0.00 94 1020.3
20260831055725 23 210 0.0 0.0 0.00 0.00 0.00 94 1020.5
20260831055224 23 248 0.0 0.0 0.00 0.00 0.00 93 1020.4
20260831054719 23 248 0.0 0.0 0.00 0.00 0.00 93 1020.3
20260831054215 23 248 0.0 0.0 0.00 0.00 0.00 93 1020.4
20260831053713 23 200 0.0 0.0 0.00 0.00 0.00 92 1020.3
20260831053213 23 200 0.0 0.0 0.00 0.00 0.00 92 1020.4
20260831052712 23 224 0.0 0.0 0.00 0.00 0.00 92 1020.7
20260831052211 23 235 0.0 0.0 0.00 0.00 0.00 92 1020.5
20260831051709 23 235 0.0 0.0 0.00 0.00 0.00 92 1020.4
20260831051208 23 331 0.0 0.0 0.00 0.00 0.00 92 1020.7
20260831050703 23 239 0.0 0.0 0.00 0.00 0.00 92 1020.8
20260831050202 23 239 0.0 0.0 0.00 0.00 0.00 92 1020.6
20260831045657 23 220 0.0 0.0 0.00 0.00 0.00 92 1020.6
20260831045152 23 183 0.0 1.6 0.00 0.00 0.00 92 1020.6
20260831044647 23 111 0.0 0.0 0.00 0.00 0.00 93 1020.8
20260831044142 23 111 0.0 0.0 0.00 0.00 0.00 93 1020.8
20260831043638 23 110 0.0 0.0 0.00 0.00 0.00 93 1020.8
20260831043133 23 108 0.0 0.0 0.00 0.00 0.00 93 1020.7
20260831042632 23 108 0.0 0.0 0.00 0.00 0.00 94 1020.8
20260831042127 23 111 0.0 0.0 0.00 0.00 0.00 94 1020.8
20260831041621 23 108 0.0 0.0 0.00 0.00 0.00 94 1020.7
20260831041120 23 112 0.0 0.0 0.00 0.00 0.00 94 1020.8
20260831040616 23 112 0.0 0.0 0.00 0.00 0.00 95 1020.8
20260831040109 23 108 0.0 0.0 0.00 0.00 0.00 95 1020.8
20260831035607 23 108 0.0 0.0 0.00 0.00 0.00 95 1020.8
20260831035057 23 109 0.0 0.0 0.00 0.00 0.00 94 1020.9
20260831034556 23 111 0.0 0.0 0.00 0.00 0.00 94 1021.0
20260831034052 23 110 0.0 0.0 0.00 0.00 0.00 94 1021.0
20260831033547 23 112 0.0 0.0 0.00 0.00 0.00 93 1021.1
20260831033042 23 109 0.0 0.0 0.00 0.00 0.00 93 1021.1
20260831032542 23 112 0.0 0.0 0.00 0.00 0.00 93 1020.9
20260831032038 23 111 0.0 0.0 0.00 0.00 0.00 93 1021.1
20260831031536 24 112 0.0 0.0 0.00 0.00 0.00 92 1021.1
20260831031031 24 112 0.0 0.0 0.00 0.00 0.00 92 1021.0
20260831030530 24 112 0.0 0.0 0.00 0.00 0.00 92 1021.1
20260831030030 24 111 0.0 0.0 0.00 0.00 0.00 92 1021.0
20260831025527 24 112 0.0 0.0 0.00 0.00 0.00 92 1021.2
20260831025023 24 111 0.0 0.0 0.00 0.00 0.00 92 1021.1
20260831024513 24 111 0.0 0.0 0.00 0.00 0.00 92 1021.0
20260831024013 24 111 0.0 0.0 0.00 0.00 0.00 92 1021.1
20260831023510 24 112 0.0 0.0 0.00 0.00 0.00 92 1021.0
20260831023005 24 111 0.0 0.0 0.00 0.00 0.00 92 1020.8
20260831022504 24 112 0.0 0.0 0.00 0.00 0.00 91 1021.0
20260831022000 24 111 0.0 0.0 0.00 0.00 0.00 91 1021.2
20260831021458 25 112 0.0 0.0 0.00 0.00 0.00 90 1021.3
20260831020954 25 112 0.0 0.0 0.00 0.00 0.00 90 1021.0
20260831020449 25 112 0.0 0.0 0.00 0.00 0.00 90 1021.1
20260831015943 25 112 0.0 0.0 0.00 0.00 0.00 89 1021.1
20260831015439 25 112 0.0 0.0 0.00 0.00 0.00 89 1021.0
20260831014934 25 112 0.0 0.0 0.00 0.00 0.00 88 1021.2
20260831014429 25 111 0.0 1.6 0.00 0.00 0.00 89 1021.2
20260831013924 25 250 0.0 0.0 0.00 0.00 0.00 90 1021.0
20260831013420 25 239 0.0 0.0 0.00 0.00 0.00 90 1021.2
20260831012914 25 248 0.0 0.0 0.00 0.00 0.00 89 1021.2
20260831012409 25 249 0.0 0.0 0.00 0.00 0.00 88 1021.3
20260831011909 25 250 0.0 0.0 0.00 0.00 0.00 88 1021.3
20260831011404 25 250 0.0 0.0 0.00 0.00 0.00 87 1021.2
20260831010859 25 257 0.0 0.0 0.00 0.00 0.00 87 1021.2
20260831010354 25 250 0.0 0.0 0.00 0.00 0.00 86 1021.0
20260831005850 25 242 0.0 0.0 0.00 0.00 0.00 86 1021.0
20260831005345 25 248 0.0 0.0 0.00 0.00 0.00 86 1020.8
20260831004840 26 246 0.0 0.0 0.00 0.00 0.00 85 1020.9
20260831004336 26 247 0.0 0.0 0.00 0.00 0.00 85 1020.7
20260831003832 26 146 0.0 0.0 0.00 0.00 0.00 84 1020.7
20260831003328 26 254 0.0 0.0 0.00 0.00 0.00 84 1020.6
20260831002827 26 238 0.0 0.0 0.00 0.00 0.00 84 1020.4
20260831002320 26 238 0.0 0.0 0.00 0.00 0.00 83 1020.3
20260831001816 26 238 0.0 0.0 0.00 0.00 0.00 83 1020.4
20260831001311 26 238 0.0 0.0 0.00 0.00 0.00 83 1020.4
20260831000809 26 238 0.0 0.0 0.00 0.00 0.00 81 1020.4
20260831000310 26 254 0.0 0.0 0.00 0.00 0.00 80 1020.3
20260830235807 26 235 0.0 0.0 0.00 0.00 0.00 79 1020.6
20260830235305 27 235 0.0 0.0 0.00 0.00 0.00 79 1020.3
20260830234757 27 235 0.0 0.0 0.00 0.00 0.00 78 1020.4
20260830234253 27 211 0.0 0.0 0.00 0.00 0.00 77 1020.3
20260830233748 27 211 0.0 0.0 0.00 0.00 0.00 76 1020.3
20260830233243 27 233 0.0 0.0 0.00 0.00 0.00 76 1020.3
20260830232734 27 232 0.0 0.0 0.00 0.00 0.00 75 1020.4
20260830232229 28 231 0.0 0.0 0.00 0.00 0.00 74 1020.4
20260830231725 28 231 0.0 0.0 0.00 0.00 0.00 73 1020.4
20260830231225 28 231 0.0 0.0 0.00 0.00 0.00 72 1020.4
20260830230720 29 231 0.0 0.0 0.00 0.00 0.00 69 1020.3
20260830230215 30 216 0.0 0.0 0.00 0.00 0.00 67 1020.1
20260830225709 30 198 0.0 3.2 0.00 0.00 0.00 66 1020.2
20260830225209 30 213 0.0 1.6 0.00 0.00 0.00 66 1020.2
20260830224708 30 225 0.0 0.0 0.00 0.00 0.00 65 1020.2
20260830224204 30 219 0.0 3.2 0.00 0.00 0.00 64 1020.3
20260830223701 30 213 0.0 0.0 0.00 0.00 0.00 67 1020.4
20260830223156 30 223 0.0 0.0 0.00 0.00 0.00 64 1020.2
20260830222650 30 165 3.2 4.8 0.00 0.00 0.00 62 1020.1
20260830222146 30 199 0.0 0.0 0.00 0.00 0.00 63 1020.2
20260830221641 30 190 1.6 1.6 0.00 0.00 0.00 62 1020.3
20260830221132 30 219 0.0 6.4 0.00 0.00 0.00 62 1020.3
20260830220627 31 202 0.0 0.0 0.00 0.00 0.00 61 1020.2
20260830220126 31 210 3.2 4.8 0.00 0.00 0.00 59 1020.3
20260830215625 32 218 0.0 1.6 0.00 0.00 0.00 57 1020.2
20260830215120 32 220 0.0 3.2 0.00 0.00 0.00 57 1020.1
20260830214615 32 218 0.0 1.6 0.00 0.00 0.00 57 1020.2
20260830214109 32 219 0.0 3.2 0.00 0.00 0.00 57 1020.2
20260830213603 32 112 4.8 6.4 0.00 0.00 0.00 55 1020.3
20260830213059 32 227 0.0 3.2 0.00 0.00 0.00 57 1020.1
20260830212555 32 188 1.6 1.6 0.00 0.00 0.00 58 1020.1
20260830212055 32 180 3.2 4.8 0.00 0.00 0.00 56 1020.1
20260830211549 33 203 1.6 1.6 0.00 0.00 0.00 54 1020.0
20260830211044 32 251 0.0 3.2 0.00 0.00 0.00 55 1020.0
20260830210539 32 224 0.0 3.2 0.00 0.00 0.00 55 1020.0
20260830210038 32 219 1.6 3.2 0.00 0.00 0.00 56 1020.0
20260830205536 32 186 4.8 6.4 0.00 0.00 0.00 54 1020.0
20260830205032 32 239 0.0 3.2 0.00 0.00 0.00 57 1020.2
20260830204530 32 99 1.6 4.8 0.00 0.00 0.00 58 1020.3
20260830204024 32 238 0.0 3.2 0.00 0.00 0.00 55 1020.2
20260830203520 32 250 1.6 3.2 0.00 0.00 0.00 56 1020.3
20260830203010 33 221 1.6 3.2 0.00 0.00 0.00 55 1020.1
20260830202504 33 225 0.0 1.6 0.00 0.00 0.00 55 1020.5
20260830202001 33 219 0.0 1.6 0.00 0.00 0.00 56 1020.5
20260830201459 32 242 0.0 1.6 0.00 0.00 0.00 58 1020.3
20260830200954 32 219 0.0 3.2 0.00 0.00 0.00 56 1020.4
20260830200449 32 89 3.2 3.2 0.00 0.00 0.00 57 1020.5
20260830195948 32 226 1.6 4.8 0.00 0.00 0.00 57 1020.7
20260830195444 32 207 1.6 3.2 0.00 0.00 0.00 56 1020.8
20260830194942 32 246 0.0 1.6 0.00 0.00 0.00 56 1020.7
20260830194441 32 247 0.0 1.6 0.00 0.00 0.00 57 1021.0
20260830193936 32 237 1.6 4.8 0.00 0.00 0.00 61 1021.0
20260830193435 31 214 0.0 1.6 0.00 0.00 0.00 59 1021.3
20260830192930 32 73 1.6 3.2 0.00 0.00 0.00 58 1021.4
20260830192425 32 239 1.6 1.6 0.00 0.00 0.00 59 1021.4
20260830191920 32 239 1.6 1.6 0.00 0.00 0.00 57 1021.4
20260830191415 32 228 1.6 3.2 0.00 0.00 0.00 61 1021.3
20260830190911 32 233 0.0 1.6 0.00 0.00 0.00 60 1021.6
20260830190406 31 226 1.6 6.4 0.00 0.00 0.00 61 1021.4
20260830185905 32 184 1.6 3.2 0.00 0.00 0.00 61 1021.6
20260830185400 31 171 3.2 4.8 0.00 0.00 0.00 59 1021.7
20260830184855 32 238 1.6 4.8 0.00 0.00 0.00 60 1021.8
20260830184354 32 224 1.6 3.2 0.00 0.00 0.00 60 1021.7
20260830183848 32 66 3.2 3.2 0.00 0.00 0.00 61 1021.8
20260830183343 31 213 0.0 4.8 0.00 0.00 0.00 63 1021.9
20260830182838 31 229 3.2 6.4 0.00 0.00 0.00 63 1022.0
20260830182334 31 231 0.0 3.2 0.00 0.00 0.00 64 1022.2
20260830181830 31 12 3.2 3.2 0.00 0.00 0.00 64 1022.3
20260830181325 31 225 1.6 1.6 0.00 0.00 0.00 64 1022.4
20260830180825 31 241 0.0 1.6 0.00 0.00 0.00 64 1022.5
20260830180319 31 233 0.0 1.6 0.00 0.00 0.00 64 1022.6
20260830175818 31 281 3.2 6.4 0.00 0.00 0.00 62 1022.6
20260830175313 31 101 1.6 3.2 0.00 0.00 0.00 64 1022.7
20260830174809 31 189 1.6 6.4 0.00 0.00 0.00 62 1022.6
20260830174304 31 121 4.8 6.4 0.00 0.00 0.00 62 1022.7
20260830173803 31 248 0.0 12.9 0.00 0.00 0.00 66 1022.8
20260830173259 31 243 4.8 4.8 0.00 0.00 0.00 62 1022.7
20260830172755 31 227 1.6 4.8 0.00 0.00 0.00 66 1022.8
20260830172252 30 114 3.2 3.2 0.00 0.00 0.00 66 1023.0
20260830171747 31 235 1.6 3.2 0.00 0.00 0.00 67 1022.9
20260830171242 31 355 0.0 3.2 0.00 0.00 0.00 66 1023.0
20260830170737 31 238 0.0 1.6 0.00 0.00 0.00 68 1023.1
20260830170236 30 227 0.0 1.6 0.00 0.00 0.00 67 1023.3
20260830165735 30 236 1.6 3.2 0.00 0.00 0.00 70 1022.9
20260830165231 30 313 1.6 1.6 0.00 0.00 0.00 68 1023.0
20260830164727 31 174 0.0 1.6 0.00 0.00 0.00 64 1023.1
20260830164223 31 223 1.6 3.2 0.00 0.00 0.00 68 1023.4
20260830163719 31 133 0.0 3.2 0.00 0.00 0.00 67 1023.5
20260830163214 30 282 1.6 3.2 0.00 0.00 0.00 70 1023.3
20260830162704 30 119 1.6 3.2 0.00 0.00 0.00 71 1023.3
20260830162200 29 228 1.6 4.8 0.00 0.00 0.00 71 1023.4
20260830161655 28 116 0.0 1.6 0.00 0.00 0.00 74 1023.4
20260830161149 29 245 0.0 3.2 0.00 0.00 0.00 73 1023.6
20260830160645 30 246 0.0 3.2 0.00 0.00 0.00 73 1023.5
20260830160139 30 157 0.0 3.2 0.00 0.00 0.00 70 1023.7
20260830155636 30 200 1.6 4.8 0.00 0.00 0.00 71 1023.7
20260830155132 30 238 0.0 4.8 0.00 0.00 0.00 74 1024.0
20260830154626 29 235 1.6 3.2 0.00 0.00 0.00 74 1023.9
20260830154123 28 153 0.0 1.6 0.00 0.00 0.00 76 1023.8
20260830153619 28 213 1.6 6.4 0.00 0.00 0.00 77 1023.9
20260830153119 28 249 0.0 3.2 0.00 0.00 0.00 76 1023.9
20260830152618 28 142 1.6 3.2 0.00 0.00 0.00 75 1024.0
20260830152116 28 238 0.0 1.6 0.00 0.00 0.00 76 1023.9
20260830151611 28 255 1.6 6.4 0.00 0.00 0.00 73 1023.8
20260830151106 28 197 3.2 4.8 0.00 0.00 0.00 75 1023.9
20260830150601 29 221 1.6 1.6 0.00 0.00 0.00 73 1023.9
20260830150055 28 114 4.8 4.8 0.00 0.00 0.00 75 1023.9
20260830145549 28 175 0.0 4.8 0.00 0.00 0.00 77 1024.0
20260830145045 28 121 1.6 4.8 0.00 0.00 0.00 79 1024.1
20260830144541 28 181 1.6 4.8 0.00 0.00 0.00 78 1024.0
20260830144036 28 271 1.6 3.2 0.00 0.00 0.00 79 1024.0
20260830143532 28 211 1.6 4.8 0.00 0.00 0.00 80 1024.1
20260830143030 27 121 1.6 3.2 0.00 0.00 0.00 82 1024.1
20260830142526 27 152 3.2 4.8 0.00 0.00 0.00 83 1024.1
20260830142021 26 267 0.0 4.8 0.00 0.00 0.00 86 1024.3
20260830141515 27 113 6.4 6.4 0.00 0.00 0.00 86 1024.3
20260830141010 26 160 1.6 3.2 0.00 0.00 0.00 87 1024.2
20260830140510 26 359 0.0 1.6 0.00 0.00 0.00 86 1024.3
20260830140006 26 128 1.6 3.2 0.00 0.00 0.00 88 1024.3
20260830135500 26 228 1.6 1.6 0.00 0.00 0.00 91 1024.3
20260830134955 25 86 0.0 1.6 0.00 0.00 0.00 94 1024.6
20260830134451 24 129 1.6 3.2 0.00 0.00 0.00 94 1024.6
20260830133946 24 129 0.0 1.6 0.00 0.00 0.00 97 1024.5
20260830133442 23 218 0.0 1.6 0.00 0.00 0.00 99 1024.6
20260830132937 23 224 0.0 1.6 0.00 0.00 0.00 99 1024.7
20260830132433 22 250 0.0 0.0 0.00 0.00 0.00 99 1024.7
20260830131932 22 167 1.6 3.2 0.00 0.00 0.00 99 1024.8
20260830131432 22 114 0.0 3.2 0.00 0.00 0.00 99 1024.8
20260830130926 22 1 1.6 3.2 0.00 0.00 0.00 99 1024.9
20260830130422 22 280 0.0 1.6 0.00 0.00 0.00 99 1025.0
20260830125921 22 153 0.0 1.6 0.00 0.00 0.00 99 1024.9
20260830125417 22 230 0.0 1.6 0.00 0.00 0.00 99 1025.0
20260830124914 22 207 0.0 0.0 0.00 0.00 0.00 99 1025.1
20260830124410 22 224 0.0 0.0 0.00 0.00 0.00 99 1025.1
20260830123906 22 224 0.0 0.0 0.00 0.00 0.00 99 1025.1
20260830123403 22 225 0.0 0.0 0.00 0.00 0.00 99 1025.1
20260830122900 21 225 0.0 0.0 0.00 0.00 0.00 99 1025.2
20260830122354 21 225 0.0 0.0 0.00 0.00 0.00 99 1025.1
20260830121850 21 205 0.0 0.0 0.00 0.00 0.00 99 1025.2
20260830121350 21 205 0.0 0.0 0.00 0.00 0.00 99 1025.0
20260830120845 21 191 0.0 0.0 0.00 0.00 0.00 99 1025.0
20260830120340 21 237 0.0 0.0 0.00 0.00 0.00 99 1024.7
20260830115837 21 236 0.0 0.0 0.00 0.00 0.00 99 1025.1
20260830115333 21 227 0.0 0.0 0.00 0.00 0.00 99 1025.0
20260830114828 21 202 0.0 0.0 0.00 0.00 0.00 99 1024.9
20260830114324 21 191 0.0 0.0 0.00 0.00 0.00 99 1024.9
20260830113819 21 203 0.0 0.0 0.00 0.00 0.00 99 1024.9
20260830113314 21 219 0.0 0.0 0.00 0.00 0.00 99 1025.0
20260830112810 20 216 0.0 0.0 0.00 0.00 0.00 99 1024.9
20260830112306 20 214 0.0 0.0 0.00 0.00 0.00 99 1025.0
20260830111802 20 244 0.0 0.0 0.00 0.00 0.00 99 1024.8
20260830111257 20 244 0.0 0.0 0.00 0.00 0.00 99 1025.0
20260830110756 20 244 0.0 0.0 0.00 0.00 0.00 99 1024.6
20260830110253 20 244 0.0 0.0 0.00 0.00 0.00 99 1024.8
20260830105752 20 244 0.0 0.0 0.00 0.00 0.00 99 1024.5
20260830105248 20 250 0.0 0.0 0.00 0.00 0.00 99 1024.6
20260830104744 20 244 0.0 0.0 0.00 0.00 0.00 99 1024.4
20260830104241 20 249 0.0 0.0 0.00 0.00 0.00 99 1024.5
20260830103740 20 250 0.0 0.0 0.00 0.00 0.00 99 1024.4
20260830103236 20 250 0.0 0.0 0.00 0.00 0.00 99 1024.5
20260830102733 20 254 0.0 0.0 0.00 0.00 0.00 99 1024.5
20260830102230 20 254 0.0 0.0 0.00 0.00 0.00 99 1024.3
20260830101726 20 255 0.0 0.0 0.00 0.00 0.00 99 1024.4
20260830101221 20 254 0.0 0.0 0.00 0.00 0.00 99 1024.4
20260830100714 20 255 0.0 0.0 0.00 0.00 0.00 99 1024.2
20260830100209 20 256 0.0 0.0 0.00 0.00 0.00 99 1024.1
20260830095708 19 230 0.0 0.0 0.00 0.00 0.00 99 1024.1
20260830095204 19 230 0.0 0.0 0.00 0.00 0.00 99 1024.0
20260830094659 19 231 0.0 0.0 0.00 0.00 0.00 99 1024.0
20260830094155 19 230 0.0 0.0 0.00 0.00 0.00 99 1023.9
20260830093650 19 230 0.0 0.0 0.00 0.00 0.00 99 1023.8
20260830093146 19 231 0.0 0.0 0.00 0.00 0.00 99 1023.9
20260830092640 19 220 0.0 0.0 0.00 0.00 0.00 99 1024.1
20260830092138 19 206 0.0 0.0 0.00 0.00 0.00 99 1024.0
20260830091638 19 200 0.0 0.0 0.00 0.00 0.00 99 1024.0
20260830091137 19 234 0.0 0.0 0.00 0.00 0.00 99 1024.2
20260830090632 19 232 0.0 0.0 0.00 0.00 0.00 99 1024.2
20260830090127 19 231 0.0 0.0 0.00 0.00 0.00 99 1024.1
20260830085626 19 230 0.0 0.0 0.00 0.00 0.00 99 1024.1
20260830085123 19 238 0.0 0.0 0.00 0.00 0.00 99 1024.0
20260830084618 19 235 0.0 0.0 0.00 0.00 0.00 99 1024.2
20260830084113 19 235 0.0 0.0 0.00 0.00 0.00 99 1024.2
20260830083609 19 239 0.0 0.0 0.00 0.00 0.00 99 1024.2
20260830083109 19 239 0.0 0.0 0.00 0.00 0.00 99 1024.3
20260830082608 19 238 0.0 0.0 0.00 0.00 0.00 99 1024.2
20260830082104 20 239 0.0 0.0 0.00 0.00 0.00 99 1024.3
20260830081600 20 239 0.0 0.0 0.00 0.00 0.00 99 1024.1
20260830081059 19 239 0.0 0.0 0.00 0.00 0.00 99 1024.2
20260830080554 19 236 0.0 0.0 0.00 0.00 0.00 99 1024.2